This demonstration page uses our WeatherBlox Daily Observations layout. Learn more.

Left ArrowRight Arrow

47.50024, -111.30081

Hourly Observations for October 18, 2019

Temp ( °F °C ) Dew Point ( °F °C ) Humidity (%) Winds ( mph kmh ) Pressure ( in mb ) Visibility ( mi km ) Precip ( " mm )
12:53 am 00:53 Clear 42 5.6 25 -3.9 51 51 SW 18 30 29.61 1003 10 16 0.00 0.00
1:53 am 01:53 Clear 42 5.6 25 -3.9 51 51 SSW 18 30 29.61 1003 10 16 0.00 0.00
2:53 am 02:53 Clear 42 5.6 26 -3.3 53 53 SW 22 35 29.59 1002 10 16 0.00 0.00
3:53 am 03:53 Clear 42 5.6 26 -3.3 53 53 SSW 21 33 29.62 1003 10 16 0.00 0.00
4:53 am 04:53 Clear 42 5.6 26 -3.3 53 53 SW 21 33 29.60 1002 10 16 0.00 0.00
5:53 am 05:53 Clear 42 5.6 25 -3.9 51 51 SSW 20 31 29.62 1003 10 16 0.00 0.00
6:53 am 06:53 Clear 42 5.6 26 -3.3 53 53 SSW 17 28 29.63 1004 10 16 0.00 0.00
7:53 am 07:53 Sunny 44 6.7 26 -3.3 49 49 SW 24 39 29.62 1003 10 16 0.00 0.00
8:53 am 08:53 Mostly Sunny 45 7.2 26 -3.3 48 48 SSW 21 33 29.62 1003 10 16 0.00 0.00
9:53 am 09:53 Sunny 45 7.2 26 -3.3 48 48 SW 18 30 29.65 1004 10 16 0.00 0.00
10:53 am 10:53 Mostly Sunny 49 9.4 25 -3.9 39 39 SW 23 37 29.66 1005 10 16 0.00 0.00
11:53 am 11:53 Mostly Sunny 49 9.4 29 -1.7 46 46 WSW 24 39 29.67 1005 10 16 0.00 0.00
12:53 pm 12:53 Partly Cloudy 51 10.6 24 -4.4 35 35 WSW 29 46 29.66 1004 10 16 0.00 0.00
1:53 pm 13:53 Mostly Sunny 53 11.7 23 -5 31 31 WSW 28 44 29.64 1004 10 16 0.00 0.00
2:53 pm 14:53 Sunny 51 10.6 21 -6.1 31 31 W 36 57 29.63 1004 10 16 0.00 0.00
3:53 pm 15:53 Sunny 50 10 22 -5.6 33 33 WSW 26 43 29.66 1005 10 16 0.00 0.00
4:53 pm 16:53 Mostly Sunny 49 9.4 20 -6.7 32 32 W 28 44 29.68 1005 10 16 0.00 0.00
5:53 pm 17:53 Sunny 47 8.3 21 -6.1 36 36 WSW 22 35 29.71 1006 10 16 0.00 0.00
6:53 pm 18:53 Partly Cloudy 42 5.6 22 -5.6 45 45 WSW 14 22 29.77 1008 10 16 0.00 0.00
7:53 pm 19:53 Clear 40 4.4 23 -5 51 51 WSW 14 22 29.79 1009 10 16 0.00 0.00
8:53 pm 20:53 Clear 38 3.3 22 -5.6 52 52 WSW 21 33 29.78 1009 10 16 0.00 0.00
9:53 pm 21:53 Clear 37 2.8 20 -6.7 50 50 SW 14 22 29.81 1010 10 16 0.00 0.00
10:53 pm 22:53 Clear 38 3.3 22 -5.6 52 52 SW 17 28 29.79 1009 10 16 0.00 0.00
11:53 pm 23:53 Clear 39 3.9 22 -5.6 50 50 SSW 15 24 29.80 1009 10 16 0.00 0.00

Powered by AerisWeather